Regional Weather Roundup
Issued by NWS

Home | Current Version | Previous Version | Text Only | Print | Product List | Glossary Off
Versions: 1 2 3 4 5 6 7 8 9 10 11 12 13 14 15 16 17 18 19 20 21 22 23 24 25 26 27 28 29 30 31 32 33 34 35 36 37 38 39 40 41 42 43 44 45 46 47 48 49 50

000
ASUS43 KMPX 260001
RWRMN
WEATHER ROUNDUP FOR MINNESOTA
NATIONAL WEATHER SERVICE TWIN CITIES/CHANHASSEN MN
600 PM CST THU DEC 25 2014


NOTE: "FAIR" INDICATES FEW OR NO CLOUDS BELOW 12,000 FEET WITH NO
SIGNIFICANT WEATHER AND/OR OBSTRUCTIONS TO VISIBILITY. N/A MEANS
CURRENT SKY AND/OR WEATHER CONDITIONS ARE NOT AVAILABLE.

MNZ060>063-068>070-260100-
   Twin Cities Metro

CITY           SKY/WX    TMP DP  RH WIND       PRES   REMARKS
TWIN CITIES    CLOUDY    34  29  82 SE6       29.81R WCI  29
6HR MIN TEMP:  33; 6HR MAX TEMP:  35; 6HR PCP: TRACE;

ST PAUL        CLOUDY    34  30  85 E3        29.83R
CRYSTAL        CLOUDY    34  31  88 N5        29.81R FOG     WCI  30
BLAINE         LGT SNOW  34  34 100 CALM      29.81R
LAKEVILLE      CLOUDY    30  28  93 CALM      29.81R
EDEN PRAIRIE   CLOUDY    34  30  85 NE3       29.80R
6HR MIN TEMP:  33; 6HR MAX TEMP:  35;

SOUTH ST PAUL  CLOUDY    35  30  83 CALM      29.82R
LAKE ELMO      CLOUDY    32  32 100 CALM      29.83R
$$
MNZ001>005-007-008-013>017-022>024-027-028-260100-
   Northwest Minnesota

CITY           SKY/WX    TMP DP  RH WIND       PRES   REMARKS
BEMIDJI        CLOUDY    26  22  84 NW9       29.84R WCI  17
HALLOCK        CLOUDY    27  23  86 NW9       29.91R WCI  17
ROSEAU         CLOUDY    28  23  80 NW6       29.87R WCI  22
WARROAD        CLOUDY    27  23  86 W6        29.86R WCI  20
THIEF RVR FALL CLOUDY    27  21  80 N10       29.89R WCI  17
CROOKSTON      CLOUDY    27  25  93 N8G16     29.91R WCI  18
FOSSTON        CLOUDY    23  21  93 N9        29.87R WCI  13
DETROIT LAKES  CLOUDY    28  27  93 N9        29.86R WCI  20
MOORHEAD       CLOUDY    28  28 100 N13       29.89R WCI  18
PARK RAPIDS    CLOUDY    29  22  75 NW7       29.82R WCI  22
MAHNOMEN       CLOUDY    25  22  86 N12       29.86R WCI  15
$$
MNZ006-009>011-018-025>026-260100-
   North Central Minnesota

CITY           SKY/WX    TMP DP  RH WIND       PRES   REMARKS
BAUDETTE       CLOUDY    27  23  85 NW5       29.83R WCI  22
FLAG ISLAND    CLOUDY    27  25  93 NW14      29.83R WCI  15
INTL FALLS     CLOUDY    28  23  81 W6        29.82R WCI  22
6HR MIN TEMP:  28; 6HR MAX TEMP:  31; 6HR PCP: TRACE;

WASKISH        CLOUDY    27  23  86 CALM      29.85R
BIG FORK       CLOUDY    28  23  80 NW6       29.82R WCI  22
LONGVILLE      CLOUDY    30  23  74 NW6       29.82R WCI  24
GRAND RAPIDS   CLOUDY    30  21  69 N7        29.80S WCI  23
CRANE LAKE     CLOUDY    28  25  86 CALM      29.82R
ORR            CLOUDY    28  23  80 NW8       29.79R WCI  20
COOK           CLOUDY    28  25  86 W5        29.81R WCI  23
WALKER         CLOUDY    28  21  75 NW6       29.82R WCI  22
$$
MNZ012-019>021-037-260100-
   Northeast Minnesota

CITY           SKY/WX    TMP DP  RH WIND       PRES   REMARKS
DULUTH         CLOUDY    31  25  78 NW6       29.79R WCI  25
6HR MIN TEMP:  31; 6HR MAX TEMP:  32;

ELY            CLOUDY    28  25  86 W3        29.79R
HIBBING        CLOUDY    31  24  75 NW7       29.80R WCI  24
EVELETH        CLOUDY    32  27  80 NW5       29.81R WCI  27
DULUTH HARBOR  CLOUDY    34  30  86 CALM      29.84R
TWO HARBORS    CLOUDY    36  28  75 CALM      29.79R
SILVER BAY     CLOUDY    34  28  80 CALM      29.79R
GRAND MARAIS     N/A     33  28  81 CALM      29.82R
G MARAIS ARPRT CLOUDY    27  23  86 CALM      29.77R
$$
MNZ029>031-032-039>041-046>048-054>057-064-260100-
   West Central Minnesota

CITY           SKY/WX    TMP DP  RH WIND       PRES   REMARKS
FERGUS FALLS   CLOUDY    28  27  93 N6        29.88R WCI  22
WHEATON        CLOUDY    27  25  93 N9        29.88R WCI  17
MORRIS         CLOUDY    30  27  86 N14       29.82R WCI  20
ALEXANDRIA     CLOUDY    30  24  78 N12       29.82R WCI  20
ELBOW LAKE     CLOUDY    28  26  91 N13       29.83R WCI  17
WADENA         CLOUDY    28  25  86 NW7       29.83R WCI  21
GLENWOOD       CLOUDY    28  27  93 N9        29.81R WCI  20
APPLETON       CLOUDY    30  27  86 N13       29.82R WCI  20
BENSON         CLOUDY    30  27  86 NE15      29.82R WCI  19
ORTONVILLE     CLOUDY    28  25  86 N14       29.84R WCI  17
MADISON        LGT SNOW  34  30  86 N12       29.82R WCI  25
WILLMAR        LGT SNOW  34  30  86 N5        29.81R WCI  30
$$
MNZ033>034-036-042>043-049>051-058-059-260100-
   Central Minnesota

CITY           SKY/WX    TMP DP  RH WIND       PRES   REMARKS
ST CLOUD       CLOUDY    36  28  73 N5        29.81R
6HR MIN TEMP:  34; 6HR MAX TEMP:  37;

SAUK CENTRE    CLOUDY    30  27  88 N9        29.82R WCI  21
PAYNESVILLE    CLOUDY    30  28  94 NW6       29.80S WCI  24
AITKIN         CLOUDY    34  25  69 CALM      29.81R
PINE RIVER     CLOUDY    30  25  80 CALM      29.86R
BRAINERD       CLOUDY    30  23  75 N3        29.83R
STAPLES        CLOUDY    28  25  86 N3        29.83R
LONG PRAIRIE   CLOUDY    30  27  86 N8        29.82S WCI  23
LITTLE FALLS   CLOUDY    32  28  86 N3        29.82S
LITCHFIELD     LGT SNOW  32  32 100 CALM      29.80S
BUFFALO        LGT SNOW  32  31  95 CALM      29.82R
MAPLE LAKE     LGT SNOW  33  32  98 CALM      29.82R
$$
MNZ037-044-045-052-053-260100-
   East Central Minnesota

CITY           SKY/WX    TMP DP  RH WIND       PRES   REMARKS
PRINCETON      CLOUDY    34  30  86 CALM      29.82R FOG
MORA           CLOUDY    32  27  80 CALM      29.84R
CAMBRIDGE      LGT SNOW  34  27  75 CALM      29.81R
RUSH CITY      CLOUDY    32  31  94 CALM      29.83R
MOOSE LAKE     CLOUDY    32  28  86 CALM      29.81R
HINCKLEY       CLOUDY    32  32 100 CALM      29.83R
CLOQUET        CLOUDY    30  27  86 NW7       29.81R WCI  23
MCGREGOR       CLOUDY    32  27  80 CALM      29.82R
$$
MNZ071>073-080-081-089-090-097-098-260100-
   Southwest Minnesota

CITY           SKY/WX    TMP DP  RH WIND       PRES   REMARKS
MONTEVIDEO     LGT SNOW  30  30 100 NE9       29.82R WCI  22
GRANITE FALLS  LGT SNOW  30  28  93 N9        29.82R WCI  22
CANBY          LGT SNOW  30  28  95 N13       29.82R WCI  20
MARSHALL       CLOUDY    30  25  80 N12       29.80R WCI  21
REDWOOD FALLS  CLOUDY    33  30  88 VRB5      29.80R WCI  29
OLIVIA         CLOUDY    30  30 100 NE3       29.80R FOG
PIPESTONE      CLOUDY    30  30 100 E12G21    29.75R FOG     WCI  21
WINDOM         CLOUDY    32  30  93 NE7       29.77R WCI  26
WORTHINGTON    CLOUDY    30 -17  12 NE15      29.76R WCI  19
JACKSON        CLOUDY    34  30  86 E6        29.77R WCI  29
TRACY          CLOUDY    32  31  97 NE12      29.79R WCI  23
SLAYTON        CLOUDY    30  30  99 NE13G18   29.77R FOG     WCI  20
$$
MNZ065>067-074>077-082>085-091>093-260100-
   South Central Minnesota

CITY           SKY/WX    TMP DP  RH WIND       PRES   REMARKS
MANKATO        CLOUDY    34  28  80 NE5       29.79R WCI  30
NEW ULM        CLOUDY    32  30  93 NE5       29.79R WCI  27
ST JAMES       CLOUDY    34  30  86 N5        29.80R WCI  30
FAIRMONT       MOCLDY    34  28  80 CALM      29.77R
GLENCOE        CLOUDY    33  32  97 CALM      29.80R FOG
FARIBAULT      CLOUDY    34  30  86 E3        29.79S
OWATONNA       CLOUDY    34  28  80 E3        29.79R
ALBERT LEA     CLOUDY    34  32  93 CALM      29.78R
$$
MNZ078>079-086>088-094>096-260100-
   Southeast Minnesota

CITY           SKY/WX    TMP DP  RH WIND       PRES   REMARKS
ROCHESTER      CLOUDY    32  28  85 SE5       29.79R WCI  27
6HR MIN TEMP:  31; 6HR MAX TEMP:  34;

RED WING       CLOUDY    34  28  80 CALM      29.81R
STANTON        CLOUDY    34  30  86 E3        29.79R
DODGE CENTER   CLOUDY    32  30  93 CALM      29.79R
WINONA         CLOUDY    36  32  87 CALM      29.82S
AUSTIN         CLOUDY    34  30  86 CALM      29.78R
PRESTON        CLOUDY    33  30  88 SE5       29.79S WCI  29
$$
ABBREVIATIONS USED IN REMARKS
   TC - TEMPERATURES IN CELSIUS
  WCI - WIND CHILL INDEX
   HX - HEAT INDEX
  VSB - VISIBILITY
$$


USA.gov is the U.S. government's official web portal to all federal, state and local government web resources and services.